Location: Newark
(46.7636°N, 1.8358°W)
Time: 21:29:35
(UTC+00:00)

Vanguard 1 Rocket - Pass Details

Date: 23 October 2019
Orbit: 651 x 4225 km, 34.3° (Epoch: 14 November)

Event Time Altitude Azimuth Distance (km) Brightness Sun altitude
Rises 16:48:46 0° 281° (W) 7,676 13.3 2.1°
Reaches altitude 10° 16:55:02 10° 270° (W) 7,024 13.5 1.1°
Maximum altitude 17:12:51 26° 225° (SW) 6,101 12.5 -1.8°
Drops below altitude 10° 17:30:28 10° 179° (S) 6,819 12.0 -4.8°
Sets 17:36:37 0° 167° (SSE) 7,407 12.0 -5.8°
